TimeEDT,TemperatureF,Dew PointF,Humidity,Sea Level PressureIn,VisibilityMPH,Wind Direction,Wind SpeedMPH,Gust SpeedMPH,PrecipitationIn,Events,Conditions,WindDirDegrees,DateUTC
12:58 AM,70.0,66.0,87,29.94,5.0,South,8.1,-,N/A,,Clear,170,2013-05-20 04:58:00
1:58 AM,68.5,65.3,89,29.94,4.0,SSE,5.8,-,N/A,,Clear,160,2013-05-20 05:58:00
2:58 AM,67.5,65.1,92,29.93,4.0,SSE,6.9,-,N/A,,Clear,160,2013-05-20 06:58:00
3:58 AM,66.2,64.2,93,29.93,4.0,South,5.8,-,N/A,,Clear,170,2013-05-20 07:58:00
4:58 AM,64.8,64.2,98,29.95,4.0,South,5.8,-,N/A,,Clear,180,2013-05-20 08:58:00
5:58 AM,64.2,64.0,99,29.96,3.0,SSE,5.8,-,N/A,,Clear,160,2013-05-20 09:58:00
6:23 AM,64.4,64.4,100,29.98,2.5,South,5.8,-,N/A,,Clear,170,2013-05-20 10:23:00
6:43 AM,64.4,64.4,100,29.98,4.0,South,6.9,-,N/A,,Clear,170,2013-05-20 10:43:00
6:58 AM,64.2,64.2,100,29.99,4.0,South,6.9,-,N/A,,Partly Cloudy,170,2013-05-20 10:58:00
7:58 AM,66.4,64.9,95,29.99,7.0,South,8.1,-,N/A,,Scattered Clouds,170,2013-05-20 11:58:00
8:58 AM,69.8,66.2,88,29.99,7.0,South,9.2,-,N/A,,Mostly Cloudy,180,2013-05-20 12:58:00
9:58 AM,73.4,67.5,82,30.00,7.0,South,10.4,-,N/A,,Mostly Cloudy,180,2013-05-20 13:58:00
10:19 AM,75.2,68.0,78,30.01,7.0,SSW,10.4,-,N/A,,Mostly Cloudy,200,2013-05-20 14:19:00
10:58 AM,76.1,68.7,78,30.00,7.0,SSW,9.2,-,N/A,,Overcast,200,2013-05-20 14:58:00
11:15 AM,77.0,69.8,78,30.01,7.0,SSW,5.8,-,N/A,,Mostly Cloudy,200,2013-05-20 15:15:00
11:43 AM,78.8,69.8,74,30.02,7.0,SSW,5.8,-,N/A,,Mostly Cloudy,200,2013-05-20 15:43:00
11:58 AM,79.0,69.4,72,30.00,7.0,South,11.5,-,N/A,,Mostly Cloudy,190,2013-05-20 15:58:00
12:38 PM,80.6,69.8,70,30.01,7.0,SSW,8.1,-,N/A,,Mostly Cloudy,210,2013-05-20 16:38:00
12:43 PM,80.6,69.8,70,30.01,7.0,SSW,11.5,-,N/A,,Mostly Cloudy,210,2013-05-20 16:43:00
12:58 PM,80.8,70.5,71,29.99,8.0,Variable,6.9,-,N/A,,Mostly Cloudy,0,2013-05-20 16:58:00
1:58 PM,81.5,68.9,65,29.97,10.0,South,10.4,-,N/A,,Mostly Cloudy,180,2013-05-20 17:58:00
2:58 PM,83.7,69.3,62,29.96,10.0,South,13.8,-,N/A,,Scattered Clouds,170,2013-05-20 18:58:00
3:58 PM,83.7,67.5,58,29.95,10.0,South,11.5,-,N/A,,Mostly Cloudy,190,2013-05-20 19:58:00
4:11 PM,84.2,68.0,58,29.95,10.0,SSW,12.7,-,N/A,,Scattered Clouds,200,2013-05-20 20:11:00
4:58 PM,83.5,68.2,60,29.94,10.0,South,10.4,-,N/A,,Mostly Cloudy,180,2013-05-20 20:58:00
5:58 PM,84.0,68.0,58,29.92,10.0,South,13.8,-,N/A,,Scattered Clouds,190,2013-05-20 21:58:00
6:58 PM,82.0,67.5,61,29.92,10.0,South,9.2,-,N/A,,Scattered Clouds,190,2013-05-20 22:58:00
7:58 PM,80.6,67.3,64,29.91,10.0,South,9.2,-,N/A,,Scattered Clouds,170,2013-05-20 23:58:00
8:58 PM,77.0,67.1,71,29.90,10.0,SSE,9.2,-,N/A,,Partly Cloudy,160,2013-05-21 00:58:00
9:58 PM,75.0,66.6,75,29.90,10.0,SSE,8.1,-,N/A,,Clear,160,2013-05-21 01:58:00
10:58 PM,73.9,66.0,76,29.92,8.0,South,6.9,-,N/A,,Clear,190,2013-05-21 02:58:00
11:58 PM,72.3,66.0,80,29.91,10.0,South,8.1,-,N/A,,Clear,180,2013-05-21 03:58:00